Weather History for KIBM - June, 2013

Change the Weather History Date:

Wednesday, June 19, 2013

  Actual Average (KSNY) Record (KSNY)
Temperature  
Mean Temperature 74 °F 69 °F  
Max Temperature 92 °F 84 °F 94 °F (2012)
Min Temperature 55 °F 54 °F 35 °F (1973)
Degree Days  
Heating Degree Days 0 1  
Month to date heating degree days 50  
Since 1 June heating degree days 50  
Since 1 July heating degree days 6212  
Cooling Degree Days 8 5  
Month to date cooling degree days 62  
Year to date cooling degree days 84  
Since 1 June cooling degree days 62  
Growing Degree Days 24 (Base 50)    
Moisture  
Dew Point 52 °F    
Average Humidity 57    
Maximum Humidity 90    
Minimum Humidity 11    
Precipitation  
Precipitation 0.00 in 0.10 in 3.89 in (2011)
Month to date precipitation 2.12  
Year to date precipitation 8.88  
Sea Level Pressure  
Sea Level Pressure 29.87 in    
Wind  
Wind Speed 15 mph (SSE)    
Max Wind Speed 36 mph    
Max Gust Speed 48 mph    
Visibility 10 miles    
Events Thunderstorm    
T = Trace of Precipitation, MM = Missing Value Source: NWS Daily Summary

Daily Weather History Graph

Daily Weather History Graph

Search for Another Location

Airport or City:

Trip Planner

Search our weather history database for the weather conditions in past years. The results will help you decide how hot, cold, wet, or windy it might be!

Date:

Astronomy

Jun. 19, 2013 Rise Set
Actual Time 6:21 AM CDT 9:30 PM CDT
Civil Twilight 5:47 AM CDT 10:04 PM CDT
Nautical Twilight 5:04 AM CDT 10:47 PM CDT
Astronomical Twilight 4:13 AM CDT 11:39 PM CDT
Moon 5:24 PM CDT (6/19) 3:09 AM CDT (6/19)
Length of Visible Light 16h 16m
Length of Day
15h 08m
Waxing Gibbous, 80% of the Moon is Illuminated
Jun 19
Waxing Gibbous
Jun 23
Full
Jun 29
Last Quarter
Jul 8
New
Jul 15
First Quarter

Hourly Weather History & Observations

Time (CDT) Temp. Heat Index Dew Point Humidity Pressure Visibility Wind Dir Wind Speed Gust Speed Precip Events Conditions
12:15 AM 58.3 °F - 54.0 °F 86% 30.04 in 10.0 mi ENE 13.8 mph - N/A Thunderstorm Thunderstorm
12:35 AM 58.1 °F - 53.4 °F 84% 30.05 in 10.0 mi ENE 10.4 mph - N/A   Overcast
12:55 AM 57.6 °F - 53.6 °F 87% 30.04 in 10.0 mi East 8.1 mph - N/A Thunderstorm Mostly Cloudy
1:15 AM 57.2 °F - 53.6 °F 88% 30.02 in 10.0 mi ESE 12.7 mph 18.4 mph N/A   Clear
1:35 AM 57.4 °F - 54.1 °F 89% 30.01 in 10.0 mi ESE 13.8 mph - N/A   Clear
1:55 AM 57.6 °F - 54.5 °F 90% 30.02 in 10.0 mi SE 10.4 mph - N/A   Clear
2:15 AM 57.6 °F - 54.7 °F 90% 30.02 in 10.0 mi SSE 11.5 mph - N/A   Clear
2:35 AM 57.2 °F - 54.1 °F 89% 30.01 in 10.0 mi SSE 12.7 mph 17.3 mph N/A   Clear
2:55 AM 57.2 °F - 52.7 °F 85% 30.00 in 10.0 mi South 8.1 mph - N/A   Clear
3:15 AM 57.9 °F - 51.8 °F 80% 29.98 in 10.0 mi SE 13.8 mph - N/A   Clear
3:35 AM 57.4 °F - 51.8 °F 82% 29.98 in 10.0 mi SE 11.5 mph - N/A   Clear
3:55 AM 57.4 °F - 52.9 °F 85% 30.00 in 10.0 mi South 11.5 mph - N/A   Clear
4:15 AM 56.7 °F - 52.9 °F 87% 29.98 in 10.0 mi SSE 8.1 mph - N/A   Clear
4:35 AM 56.1 °F - 52.7 °F 88% 30.00 in 10.0 mi South 6.9 mph - N/A   Clear
4:55 AM 55.2 °F - 52.3 °F 90% 30.00 in 10.0 mi South 5.8 mph - N/A   Clear
5:15 AM 55.0 °F - 51.4 °F 88% 29.98 in 10.0 mi South 5.8 mph - N/A   Clear
5:35 AM 55.0 °F - 50.5 °F 85% 29.97 in 10.0 mi SSE 8.1 mph - N/A   Clear
5:55 AM 56.1 °F - 50.2 °F 80% 29.97 in 10.0 mi SSE 10.4 mph - N/A   Clear
6:15 AM 55.8 °F - 50.2 °F 82% 29.96 in 10.0 mi South 10.4 mph - N/A   Clear
6:35 AM 55.8 °F - 50.0 °F 81% 29.95 in 10.0 mi South 12.7 mph - N/A   Clear
6:55 AM 55.4 °F - 50.0 °F 82% 29.94 in 10.0 mi South 9.2 mph - N/A   Clear
7:15 AM 55.6 °F - 50.4 °F 83% 29.94 in 10.0 mi South 8.1 mph - N/A   Clear
7:35 AM 56.8 °F - 50.9 °F 80% 29.93 in 10.0 mi SSE 10.4 mph - N/A   Clear
7:55 AM 58.5 °F - 51.8 °F 79% 29.93 in 10.0 mi South 12.7 mph - N/A   Clear
8:15 AM 60.1 °F - 52.7 °F 77% 29.92 in 10.0 mi South 10.4 mph - N/A   Clear
8:35 AM 63.5 °F - 54.5 °F 72% 29.92 in 10.0 mi South 16.1 mph 19.6 mph N/A   Clear
8:55 AM 65.7 °F - 55.6 °F 70% 29.92 in 10.0 mi SSW 18.4 mph 23.0 mph N/A   Clear
9:15 AM 67.5 °F - 56.5 °F 68% 29.91 in 10.0 mi SSW 19.6 mph 23.0 mph N/A   Clear
9:35 AM 68.5 °F - 57.2 °F 67% 29.90 in 10.0 mi SSW 21.9 mph 26.5 mph N/A   Clear
9:55 AM 69.6 °F - 57.4 °F 65% 29.89 in 10.0 mi South 18.4 mph 27.6 mph N/A   Clear
10:15 AM 70.7 °F - 57.0 °F 62% 29.88 in 10.0 mi SSW 23.0 mph 27.6 mph N/A   Clear
10:35 AM 71.4 °F - 56.7 °F 60% 29.89 in 10.0 mi SSW 18.4 mph 26.5 mph N/A   Clear
10:55 AM 73.2 °F - 56.3 °F 55% 29.88 in 10.0 mi SSW 19.6 mph - N/A   Clear
11:15 AM 74.7 °F - 55.4 °F 51% 29.88 in 10.0 mi SSW 20.7 mph 24.2 mph N/A   Clear
11:35 AM 76.1 °F - 55.6 °F 49% 29.87 in 10.0 mi South 17.3 mph 20.7 mph N/A   Clear
11:55 AM 76.3 °F - 55.0 °F 48% 29.87 in 10.0 mi South 17.3 mph 20.7 mph N/A   Clear
12:15 PM 77.7 °F - 55.6 °F 46% 29.86 in 10.0 mi South 17.3 mph 24.2 mph N/A   Clear
12:35 PM 78.4 °F - 55.0 °F 44% 29.86 in 10.0 mi South 16.1 mph 23.0 mph N/A   Clear
12:55 PM 80.4 °F 80.5 °F 56.1 °F 43% 29.85 in 10.0 mi South 13.8 mph 20.7 mph N/A   Clear
1:15 PM 81.9 °F 81.2 °F 54.9 °F 39% 29.85 in 10.0 mi SSE 16.1 mph 24.2 mph N/A   Clear
1:35 PM 83.5 °F 82.4 °F 54.7 °F 37% 29.84 in 10.0 mi South 15.0 mph 18.4 mph N/A   Clear
1:55 PM 83.8 °F 82.4 °F 53.6 °F 35% 29.83 in 10.0 mi SSE 13.8 mph 24.2 mph N/A   Clear
2:35 PM 86.0 °F - 51.3 °F 30% 29.82 in 10.0 mi SSE 13.8 mph 23.0 mph N/A   Clear
2:55 PM 86.9 °F - 50.5 °F 28% 29.81 in 10.0 mi SSE 17.3 mph 23.0 mph N/A   Clear
3:15 PM 88.0 °F - 48.0 °F 25% 29.80 in 10.0 mi South 16.1 mph 25.3 mph N/A   Clear
3:35 PM 88.9 °F - 46.8 °F 23% 29.80 in 10.0 mi SSE 16.1 mph 21.9 mph N/A   Clear
3:55 PM 89.8 °F - 46.2 °F 22% 29.79 in 10.0 mi South 16.1 mph 24.2 mph N/A   Clear
4:15 PM 91.0 °F - 40.1 °F 17% 29.78 in 10.0 mi SSE 17.3 mph 24.2 mph N/A   Clear
4:35 PM 91.4 °F - 36.3 °F 14% 29.78 in 10.0 mi SSE 24.2 mph 28.8 mph N/A   Clear
4:55 PM 92.1 °F - 32.2 °F 12% 29.77 in 10.0 mi SSE 19.6 mph 28.8 mph N/A   Clear
5:15 PM 92.3 °F - 34.2 °F 13% 29.76 in 10.0 mi SSE 18.4 mph 25.3 mph N/A   Clear
5:35 PM 92.1 °F - 30.2 °F 11% 29.75 in 10.0 mi SSE 16.1 mph 23.0 mph N/A   Clear
5:55 PM 90.3 °F - 46.6 °F 22% 29.74 in 10.0 mi SSE 23.0 mph 34.5 mph N/A   Clear
6:15 PM 89.6 °F - 45.7 °F 22% 29.74 in 10.0 mi SE 27.6 mph 31.1 mph N/A   Scattered Clouds
6:35 PM 90.1 °F - 45.1 °F 21% 29.74 in 10.0 mi SE 28.8 mph 35.7 mph N/A   Clear
6:55 PM 88.2 °F 86.1 °F 53.8 °F 31% 29.74 in 10.0 mi SSE 28.8 mph 38.0 mph N/A   Clear
7:15 PM 87.4 °F - 52.3 °F 30% 29.74 in 10.0 mi SSE 29.9 mph 35.7 mph N/A   Clear
7:35 PM 85.6 °F 84.7 °F 57.2 °F 38% 29.74 in 10.0 mi SSE 31.1 mph 39.1 mph N/A   Clear
7:55 PM 84.2 °F 83.7 °F 57.9 °F 41% 29.74 in 10.0 mi SSE 29.9 mph 40.3 mph N/A   Clear
8:15 PM 82.6 °F 82.3 °F 58.1 °F 43% 29.75 in 10.0 mi SSE 27.6 mph 35.7 mph N/A   Clear
8:35 PM 81.5 °F 81.5 °F 57.9 °F 44% 29.75 in 10.0 mi SSE 29.9 mph 35.7 mph N/A   Clear
8:55 PM 80.2 °F 80.6 °F 57.7 °F 46% 29.76 in 10.0 mi SE 24.2 mph 32.2 mph N/A   Clear
9:15 PM 79.0 °F - 57.2 °F 47% 29.77 in 10.0 mi SE 23.0 mph 31.1 mph N/A   Clear
9:35 PM 78.1 °F - 56.7 °F 48% 29.77 in 10.0 mi SSE 25.3 mph 33.4 mph N/A   Clear
9:55 PM 77.7 °F - 55.8 °F 47% 29.77 in 10.0 mi SSE 23.0 mph 29.9 mph N/A   Clear
10:15 PM 77.0 °F - 55.0 °F 47% 29.78 in 10.0 mi SSE 25.3 mph 31.1 mph N/A   Clear
10:35 PM 76.5 °F - 55.0 °F 47% 29.78 in 10.0 mi SE 21.9 mph 28.8 mph N/A   Clear
10:55 PM 75.2 °F - 58.1 °F 55% 29.78 in 10.0 mi SE 21.9 mph 29.9 mph N/A   Clear
11:15 PM 75.0 °F - 55.9 °F 51% 29.79 in 10.0 mi SSE 26.5 mph 36.8 mph N/A Thunderstorm Clear
11:35 PM 75.2 °F - 57.7 °F 54% 29.79 in 10.0 mi SSE 27.6 mph 41.4 mph N/A   Clear
11:55 PM 73.0 °F - 59.0 °F 61% 29.79 in 10.0 mi SSE 35.7 mph 48.3 mph N/A   Clear